{"data":{"norad_id":68623,"intl_designator":"2026-073X","name":"STARLINK-37284","alt_names":[],"object_type":"PAYLOAD","status":"ACTIVE","operator":null,"country":"US","launch_date":"2026-04-07","launch_site_code":"AFWTR","launch_vehicle":null,"mission":null,"orbit_class":"UNKNOWN","rcs_meters":null,"size_class":null,"mass_kg":null,"dimensions":null,"purposes":["comms"],"wikipedia_slug":null,"has_3d_model":false,"image_url":null,"decayed_at":null,"tle_current":{"epoch":"2026-05-25T04:00:03.998880Z","epoch_age_seconds":71088,"freshness":"FRESH","line1":"1 68623U 26073X   26145.16671295 -.03226955  00000+0 -59666-1 0  9994","line2":"2 68623  97.2855 344.7346 0002951  80.3962  39.5054 15.52704276  5908","mean_motion":15.52704276,"eccentricity":0.0002951,"inclination_deg":97.2855,"raan_deg":344.7346,"arg_perigee_deg":80.3962,"mean_anomaly_deg":39.5054,"bstar":-0.059666,"rev_number":590,"period_min":92.741420388798,"perigee_km":406.83140149393,"apogee_km":410.83707191783,"semimajor_km":6786.9712367059,"source":"CELESTRAK","updated_at":"2026-05-25T13:38:21.989867Z"}}}